When you browse on this site, cookies collect data to enhance your experience and personalize the content and advertising you see.
Visit our Privacy Policy to learn more. By continuing to use the site, you agree to this use of cookies and data.
  • In Hungary
  • List of Countries
  • For 7 days
  • Water Temperature
  • Weather Map
  • News
  • Weather Widgets
  • user-avatar
    Login

    Hourly Weather Sledzie

    Today, 6 December, Friday

    Time Temperature Precipitation Wind Pressure Humidity
    00:00 -2°C° 0 mm 5 mps 747 mmHg 73%
    01:00 -2°C° 0 mm 5 mps 747 mmHg 73%
    02:00 -2°C° 0 mm 5 mps 747 mmHg 72%
    03:00 -2°C° 0 mm 5 mps 746 mmHg 72%
    04:00 -3°C° 0 mm 6 mps 745 mmHg 71%
    05:00 -3°C° 0 mm 6 mps 745 mmHg 70%
    06:00 -4°C° 0 mm 6 mps 745 mmHg 69%
    07:00 -4°C° 0 mm 6 mps 745 mmHg 67%
    08:00 -3°C° 0 mm 7 mps 744 mmHg 63%
    09:00 -2°C° 0 mm 7 mps 744 mmHg 59%
    10:00 -2°C° 0 mm 7 mps 743 mmHg 55%
    11:00 -1°C° 0 mm 7 mps 743 mmHg 53%
    12:00 -1°C° 0 mm 7 mps 743 mmHg 52%
    13:00 0°C° 0 mm 7 mps 743 mmHg 50%
    14:00 0°C° 0 mm 7 mps 743 mmHg 52%
    15:00 +1°C° 0 mm 6 mps 742 mmHg 54%
    16:00 -1°C° 0 mm 6 mps 742 mmHg 56%
    17:00 -1°C° 0.1 mm 6 mps 742 mmHg 58%
    18:00 0°C° 0.1 mm 5 mps 742 mmHg 60%
    19:00 0°C° 0.1 mm 5 mps 742 mmHg 63%
    20:00 0°C° 0.1 mm 5 mps 742 mmHg 63%
    21:00 0°C° 0.1 mm 5 mps 742 mmHg 63%
    22:00 0°C° 0.1 mm 5 mps 741 mmHg 63%
    23:00 0°C° 0.1 mm 5 mps 741 mmHg 62%

    Tomorrow, 7 December, Saturday

    Time Temperature Precipitation Wind Pressure Humidity
    00:00 0°C° 0.1 mm 5 mps 741 mmHg 62%
    01:00 0°C° 0.1 mm 5 mps 741 mmHg 62%
    02:00 0°C° 0 mm 5 mps 740 mmHg 61%
    03:00 -1°C° 0 mm 6 mps 739 mmHg 61%
    04:00 -1°C° 0 mm 6 mps 738 mmHg 60%
    05:00 -1°C° 0 mm 6 mps 738 mmHg 62%
    06:00 -1°C° 0 mm 6 mps 738 mmHg 63%
    07:00 -1°C° 0 mm 6 mps 738 mmHg 65%
    08:00 -1°C° 0 mm 6 mps 737 mmHg 70%
    09:00 +1°C° 0 mm 6 mps 737 mmHg 74%
    10:00 +1°C° 0 mm 6 mps 737 mmHg 79%
    11:00 +2°C° 0.1 mm 6 mps 737 mmHg 82%
    12:00 +2°C° 0.1 mm 6 mps 737 mmHg 86%
    13:00 +3°C° 0.1 mm 6 mps 736 mmHg 90%
    14:00 +3°C° 0.2 mm 6 mps 736 mmHg 89%
    15:00 +3°C° 0.2 mm 6 mps 736 mmHg 88%
    16:00 +3°C° 0.2 mm 6 mps 736 mmHg 87%
    17:00 +5°C° 0.6 mm 5 mps 736 mmHg 88%
    18:00 +5°C° 0.6 mm 5 mps 736 mmHg 89%
    19:00 +5°C° 0.6 mm 5 mps 736 mmHg 89%
    20:00 +5°C° 0.1 mm 5 mps 737 mmHg 89%
    21:00 +3°C° 0.1 mm 5 mps 737 mmHg 89%
    22:00 +3°C° 0.1 mm 5 mps 737 mmHg 88%
    23:00 +3°C° 0.1 mm 5 mps 737 mmHg 84%

    Day after tomorrow, 8 December, Sunday

    Time Temperature Precipitation Wind Pressure Humidity
    00:00 +2°C° 0.1 mm 5 mps 738 mmHg 81%
    01:00 +2°C° 0.1 mm 5 mps 738 mmHg 77%
    02:00 +2°C° 0 mm 5 mps 738 mmHg 78%
    03:00 +1°C° 0 mm 5 mps 738 mmHg 80%
    04:00 0°C° 0 mm 5 mps 738 mmHg 82%
    05:00 0°C° 0 mm 5 mps 738 mmHg 85%
    06:00 0°C° 0 mm 4 mps 738 mmHg 88%
    07:00 0°C° 0 mm 4 mps 739 mmHg 91%
    08:00 +1°C° 0.1 mm 4 mps 739 mmHg 90%
    09:00 +3°C° 0.1 mm 4 mps 739 mmHg 89%
    10:00 +4°C° 0.1 mm 4 mps 739 mmHg 88%
    11:00 +4°C° 0.1 mm 4 mps 738 mmHg 88%
    12:00 +4°C° 0.1 mm 4 mps 738 mmHg 88%
    13:00 +3°C° 0.1 mm 5 mps 738 mmHg 88%
    14:00 +5°C° 0 mm 5 mps 737 mmHg 86%
    15:00 +4°C° 0 mm 6 mps 736 mmHg 83%
    16:00 +4°C° 0 mm 6 mps 736 mmHg 81%
    17:00 +4°C° 0.1 mm 7 mps 735 mmHg 81%
    18:00 +4°C° 0.1 mm 7 mps 735 mmHg 81%
    19:00 +4°C° 0.1 mm 7 mps 735 mmHg 81%
    20:00 +4°C° 0.1 mm 7 mps 734 mmHg 82%
    21:00 +4°C° 0.1 mm 7 mps 734 mmHg 83%
    22:00 +4°C° 0.1 mm 6 mps 733 mmHg 85%
    23:00 +4°C° 0.3 mm 6 mps 733 mmHg 87%

    9 December, Monday

    Time Temperature Precipitation Wind Pressure Humidity
    00:00 +5°C° 0.3 mm 6 mps 733 mmHg 89%
    01:00 +6°C° 0.3 mm 5 mps 733 mmHg 91%
    02:00 +6°C° 0.2 mm 5 mps 732 mmHg 89%
    03:00 +6°C° 0.2 mm 5 mps 732 mmHg 88%
    04:00 +5°C° 0.2 mm 5 mps 732 mmHg 87%
    05:00 +5°C° 0 mm 5 mps 732 mmHg 87%
    06:00 +4°C° 0 mm 4 mps 732 mmHg 88%
    07:00 +4°C° 0 mm 4 mps 732 mmHg 89%
    08:00 +4°C° 0 mm 4 mps 732 mmHg 85%
    09:00 +3°C° 0 mm 5 mps 732 mmHg 82%
    10:00 +5°C° 0 mm 5 mps 732 mmHg 78%
    11:00 +5°C° 0 mm 5 mps 732 mmHg 77%
    12:00 +5°C° 0 mm 4 mps 732 mmHg 75%
    13:00 +5°C° 0 mm 4 mps 732 mmHg 74%
    14:00 +5°C° 0 mm 4 mps 732 mmHg 75%
    15:00 +4°C° 0 mm 3 mps 732 mmHg 77%
    16:00 +4°C° 0 mm 3 mps 732 mmHg 78%
    17:00 +4°C° 0 mm 3 mps 732 mmHg 80%
    18:00 +3°C° 0 mm 3 mps 732 mmHg 83%
    19:00 +3°C° 0 mm 3 mps 732 mmHg 85%
    20:00 +3°C° 0 mm 3 mps 732 mmHg 86%
    21:00 +3°C° 0 mm 3 mps 732 mmHg 88%
    22:00 +2°C° 0 mm 3 mps 732 mmHg 89%
    23:00 +2°C° 0 mm 3 mps 732 mmHg 89%

    10 December, Tuesday

    Time Temperature Precipitation Wind Pressure Humidity
    00:00 +2°C° 0 mm 3 mps 732 mmHg 89%
    01:00 +2°C° 0 mm 3 mps 732 mmHg 89%
    02:00 +3°C° 0 mm 2 mps 732 mmHg 90%
    03:00 +3°C° 0 mm 2 mps 732 mmHg 92%
    04:00 +2°C° 0 mm 2 mps 732 mmHg 93%
    05:00 +3°C° 0.1 mm 2 mps 732 mmHg 93%
    06:00 +3°C° 0.1 mm 2 mps 732 mmHg 93%
    07:00 +3°C° 0.1 mm 2 mps 733 mmHg 94%
    08:00 +3°C° 0.1 mm 2 mps 733 mmHg 93%
    09:00 +3°C° 0.1 mm 2 mps 734 mmHg 93%
    10:00 +3°C° 0.1 mm 3 mps 735 mmHg 92%
    11:00 +3°C° 0.3 mm 4 mps 735 mmHg 88%
    12:00 +1°C° 0.3 mm 6 mps 736 mmHg 83%
    13:00 0°C° 0.3 mm 7 mps 737 mmHg 79%
    14:00 0°C° 0 mm 7 mps 738 mmHg 81%
    15:00 -1°C° 0 mm 7 mps 739 mmHg 83%
    16:00 -2°C° 0 mm 7 mps 740 mmHg 85%
    17:00 -2°C° 0.1 mm 7 mps 741 mmHg 81%
    18:00 -2°C° 0.1 mm 6 mps 742 mmHg 77%
    19:00 -2°C° 0.1 mm 5 mps 743 mmHg 73%
    20:00 -2°C° 0 mm 5 mps 744 mmHg 70%
    21:00 -2°C° 0 mm 4 mps 745 mmHg 67%
    22:00 -3°C° 0 mm 4 mps 746 mmHg 64%
    23:00 -2°C° 0 mm 3 mps 746 mmHg 66%

    11 December, Wednesday

    Time Temperature Precipitation Wind Pressure Humidity
    00:00 -2°C° 0 mm 3 mps 746 mmHg 68%
    01:00 -2°C° 0 mm 3 mps 746 mmHg 69%
    02:00 -2°C° 0 mm 3 mps 747 mmHg 69%
    03:00 -2°C° 0 mm 3 mps 747 mmHg 69%
    04:00 -4°C° 0 mm 3 mps 747 mmHg 69%
    05:00 -4°C° 0 mm 3 mps 747 mmHg 68%
    06:00 -4°C° 0 mm 3 mps 746 mmHg 67%
    07:00 -4°C° 0 mm 3 mps 746 mmHg 66%
    08:00 -2°C° 0 mm 3 mps 746 mmHg 62%
    09:00 -3°C° 0 mm 4 mps 745 mmHg 59%
    10:00 -2°C° 0 mm 5 mps 745 mmHg 55%
    11:00 -2°C° 0 mm 5 mps 744 mmHg 51%
    12:00 -2°C° 0 mm 5 mps 743 mmHg 47%
    13:00 -3°C° 0 mm 6 mps 743 mmHg 42%
    14:00 -3°C° 0 mm 6 mps 742 mmHg 47%
    15:00 -3°C° 0 mm 6 mps 742 mmHg 53%
    16:00 -4°C° 0 mm 6 mps 741 mmHg 58%
    17:00 -4°C° 0.3 mm 6 mps 741 mmHg 70%
    18:00 -4°C° 0.3 mm 6 mps 740 mmHg 82%
    19:00 -5°C° 0.3 mm 6 mps 740 mmHg 93%
    20:00 -4°C° 0.8 mm 5 mps 740 mmHg 94%
    21:00 -2°C° 0.8 mm 5 mps 739 mmHg 96%
    22:00 -2°C° 0.8 mm 4 mps 739 mmHg 97%
    23:00 -1°C° 0.1 mm 4 mps 739 mmHg 95%
    Show more